Home   Weather   Murmansk   Past weeks
Flag for Russia

Past Weather in Murmansk, Russia — Yesterday and Last 2 Weeks

Now
45 °F

Sprinkles. Broken clouds.


Feels Like: 43 °F
Forecast: 48 / 42 °F
Wind: 3 mph from Northeast

Location: Murmansk Airport

Current Time: Jul 17, 2019 at 1:43:41 am

Latest Report: Jul 17, 2019 at 1:00 am


Visibility: 6 mi

Pressure: 29.95 "Hg

Humidity: 93%

Dew Point: 43 °F

Location of MurmanskLocation

Past Weather in Murmansk — Graph

°F

Murmansk Temperature Yesterday

Maximum temperature yesterday: 46 °F (at 10:30 am)
Minimum temperature yesterday: 39 °F (at 1:30 am)
Average temperature yesterday: 45 °F

High & Low Weather Summary for the Past Weeks

 TemperatureHumidityPressure
High61 °F (Jul 3, 1:00 pm)100% (Jul 3, 2:00 am)30.07 "Hg (Jul 3, 2:00 am)
Low37 °F (Jul 15, 2:30 am)47% (Jul 8, 5:00 pm)29.42 "Hg (Jul 2, 1:30 am)
Average47 °F81%29.82 "Hg
* Reported Jul 2 12:00 am — Jul 17 12:30 am, Murmansk. Weather by CustomWeather, © 2019

Note: Actual official high and low records may vary slightly from our data, if they occured in-between our weather recording intervals... More about our weather records

Advertising

Murmansk Weather History for the Previous 24 Hours

Scroll right to see more
 ConditionsComfort  
Time TempWeatherWind HumidityBarometerVisibility
12:30 am
Wed, Jul 17
45 °FSprinkles. Partly sunny.6 mph93%29.95 "Hg6 mi
12:00 am45 °FSprinkles. Partly sunny.6 mph93%29.95 "HgN/A
11:30 pm
Tue, Jul 16
45 °FSprinkles. Partly sunny.6 mph93%29.95 "HgN/A
11:00 pm45 °FSprinkles. Partly sunny.6 mph93%29.95 "HgN/A
10:30 pm45 °FSprinkles. Partly sunny.8 mph93%29.95 "Hg6 mi
10:00 pm45 °FSprinkles. Partly sunny.8 mph93%29.95 "Hg6 mi
9:30 pm45 °FSprinkles. Partly sunny.6 mph93%29.95 "HgN/A
9:00 pm45 °FSprinkles. Partly sunny.6 mph93%29.95 "HgN/A
8:30 pm45 °FSprinkles. Partly sunny.3 mph93%29.95 "Hg6 mi
8:00 pm45 °FSprinkles. Partly sunny.3 mph93%29.95 "Hg4 mi
7:30 pm45 °FSprinkles. Fog.6 mph93%29.98 "Hg2 mi
7:00 pm45 °FSprinkles. Fog.6 mph93%29.98 "Hg2 mi
6:30 pm45 °FSprinkles. Fog.6 mph93%29.98 "Hg2 mi
6:00 pm45 °FSprinkles. Broken clouds.8 mph93%29.98 "Hg3 mi
5:30 pm46 °FSprinkles. Broken clouds.6 mph82%29.98 "HgN/A
5:00 pm46 °FSprinkles. Partly sunny.6 mph87%29.98 "Hg5 mi
4:30 pm46 °FSprinkles. Broken clouds.6 mph87%29.98 "Hg2 mi
4:00 pm46 °FSprinkles. Broken clouds.8 mph82%29.98 "Hg4 mi
3:30 pm46 °FSprinkles. Broken clouds.10 mph82%29.98 "Hg6 mi
3:00 pm46 °FSprinkles. Broken clouds.8 mph82%29.98 "Hg6 mi
2:30 pm46 °FPartly sunny.8 mph82%29.98 "Hg6 mi
2:00 pm46 °FPartly sunny.6 mph82%29.98 "HgN/A
1:30 pm46 °FSprinkles. Partly sunny.6 mph82%29.98 "HgN/A
1:00 pm46 °FSprinkles. Partly sunny.6 mph87%29.98 "HgN/A
12:30 pm46 °FSprinkles. Partly sunny.8 mph87%29.98 "Hg6 mi
12:00 pm45 °FPartly sunny.8 mph93%29.98 "Hg4 mi
11:30 am46 °FPartly sunny.6 mph87%29.98 "HgN/A
11:00 am46 °FSprinkles. Broken clouds.6 mph87%29.98 "Hg6 mi
10:30 am46 °FSprinkles. Broken clouds.6 mph87%29.98 "HgN/A
10:00 am45 °FSprinkles. Broken clouds.3 mph93%30.01 "HgN/A
9:30 am45 °FSprinkles. Partly sunny.1 mph87%30.01 "Hg6 mi
9:00 am45 °FSprinkles. Partly sunny.3 mph87%29.98 "HgN/A
8:30 am45 °FSprinkles. Partly sunny.3 mph87%29.98 "Hg6 mi
8:00 am45 °FSprinkles. Partly sunny.3 mph81%30.01 "HgN/A
7:30 am45 °FSprinkles. Broken clouds.6 mph81%30.01 "HgN/A
7:00 am45 °FPartly sunny.3 mph81%30.01 "HgN/A
6:30 am45 °FPartly sunny.3 mph81%30.01 "HgN/A
6:00 am45 °FPartly sunny.3 mph81%30.01 "HgN/A
5:30 am45 °FBroken clouds.3 mph81%30.01 "HgN/A
5:00 am45 °FPartly sunny.3 mph81%30.01 "HgN/A
4:30 am45 °FPartly sunny.1 mph81%30.01 "HgN/A
4:00 am45 °FPartly sunny.1 mph81%29.98 "HgN/A
3:30 am43 °FSunny.1 mph87%29.98 "Hg10 mi
3:00 am43 °FSunny.1 mph87%29.98 "Hg10 mi
2:30 am43 °FSunny.1 mph93%29.98 "Hg10 mi
2:00 am39 °FSunny.No wind93%29.98 "Hg10 mi
1:30 am39 °FSunny.No wind93%29.98 "Hg10 mi
1:00 am41 °FSunny.No wind81%29.98 "Hg10 mi
Weather by CustomWeather, © 2019

See weather overview

LIVE PARTIAL LUNAR ECLIPSE – Watch the eclipse as it happens